Wind_Speed
19 18 18 17 17 15 14 14 14 13 14 15 16 17 18 20 20 21 22 21 21 20 18 18 18 17 16 16 15 13 12 11 12
19 18 17 16 15 14 13 12 11 11 11 11 12 13 14 15 17 19 21 22 22 22 22 22 21 20 19 19 18 17 16 15 15
18 17 16 16 16 14 13 13 13 12 12 12 13 14 15 15 15 16 18 20 20 21 23 23 22 22 21 21 20 20 19 19 18
17 17 16 16 16 16 15 13 12 11 12 13 15 16 17 17 16 16 19 20 19 20 21 22 23 22 22 22 23 22 23 21 21
17 17 17 17 16 15 15 14 13 13 14 15 16 17 19 20 20 20 19 21 21 21 21 21 22 24 25 25 25 26 25 25 23
17 17 16 15 15 14 13 13 14 15 16 17 18 19 19 19 20 20 19 18 21 21 22 22 23 25 27 27 26 25 25 25 28
17 16 16 15 14 13 13 13 15 16 18 19 19 20 20 20 19 19 20 20 20 22 23 21 23 27 27 27 28 29 30 30 28
16 16 15 15 14 14 15 16 17 18 18 19 19 20 20 20 21 21 21 21 21 23 24 23 24 27 26 26 27 29 31 33 35
15 15 14 14 15 16 17 17 17 17 18 19 19 19 19 20 20 21 21 22 23 23 26 25 25 26 25 26 27 29 30 32 33
14 14 14 14 15 16 16 17 18 18 19 20 20 20 21 20 20 21 21 22 22 23 25 25 24 25 25 27 27 27 27 27 28
14 14 14 14 15 17 18 19 20 20 20 22 21 20 21 21 20 20 21 21 23 23 24 25 24 25 24 25 23 22 24 25 27
17 17 17 17 17 18 19 20 20 19 20 21 20 20 21 21 20 21 22 21 21 22 23 23 22 24 24 21 19 19 19 22 24
19 20 21 21 21 20 21 20 21 19 18 20 21 20 21 22 22 22 21 21 21 22 22 22 21 23 23 19 19 19 22 21 25
19 20 21 21 22 22 21 22 21 19 21 22 22 21 21 22 23 23 22 21 20 21 22 22 22 22 20 19 20 21 20 24 28
19 20 22 22 22 21 22 22 22 19 19 22 23 23 22 21 22 23 22 22 20 20 22 22 23 23 20 20 21 20 21 25 30
20 20 21 22 21 21 20 21 22 21 20 21 21 22 22 22 22 21 20 19 20 21 22 23 23 23 21 21 22 21 22 21 32
21 22 22 21 21 20 20 20 21 20 19 19 20 20 19 20 20 19 19 21 20 20 23 22 23 23 21 21 21 20 19 19 20
23 23 22 21 20 20 19 18 19 19 18 18 18 18 18 18 19 20 20 21 22 21 22 23 24 23 22 22 21 21 21 17 16
24 23 21 20 20 20 19 18 17 17 17 16 18 16 16 15 12 16 19 21 22 23 23 22 25 23 22 23 22 20 20 19 16
24 22 20 20 20 20 20 20 19 18 18 16 16 18 19 20 18 11 11 17 20 21 22 21 23 23 21 24 24 21 21 19 16
Wind_Direction
308 307 306 307 307 303 295 288 282 274 270 271 271 270 270 269 267 263 262 260 254 249 253 256 259 260 260 262 263 265 269 270 267
312 308 304 304 303 303 301 294 285 282 278 274 273 274 274 273 271 266 262 261 258 256 251 252 253 255 259 261 262 261 261 262 261
313 308 305 302 300 297 295 290 287 286 287 289 288 285 281 275 271 273 271 266 264 258 254 250 249 250 252 254 257 260 260 259 260
319 314 309 303 299 296 293 289 285 283 285 289 290 287 282 278 273 269 273 271 264 261 259 255 253 248 246 250 251 253 254 256 257
319 316 313 309 304 300 296 292 287 286 289 291 291 290 288 285 281 276 268 269 266 260 257 255 253 251 248 242 244 245 249 249 253
319 315 311 308 305 302 299 296 294 294 294 293 293 291 289 288 286 283 276 266 264 260 258 257 257 258 255 253 250 250 248 248 246
318 315 312 310 306 302 299 296 294 295 295 294 293 292 292 289 285 282 279 273 270 268 265 267 268 265 263 262 262 261 258 256 251
319 316 314 312 310 307 305 302 301 300 300 299 296 294 291 290 288 283 280 279 273 273 270 268 267 266 267 268 266 264 261 258 254
322 318 315 312 310 309 309 310 311 310 307 304 300 297 295 292 289 287 283 279 278 276 275 274 274 276 276 273 271 268 266 263 259
325 321 315 311 308 306 306 305 305 305 303 301 300 298 296 293 291 288 284 281 280 278 279 280 280 279 279 277 275 276 276 276 272
332 325 318 311 306 304 302 301 302 302 301 299 298 297 297 296 294 291 286 285 284 283 283 282 283 280 276 274 277 280 281 280 279
330 327 322 317 313 310 308 307 307 308 306 302 302 303 298 294 291 286 287 288 286 284 283 281 280 278 277 281 284 278 275 278 278
326 325 321 319 317 315 313 311 310 314 311 310 312 308 301 296 287 285 287 287 286 287 285 281 278 279 286 290 283 282 289 290 292
326 327 325 320 319 317 315 311 310 310 305 304 306 310 307 299 291 285 286 289 288 290 287 282 279 282 290 288 282 287 295 291 297
329 329 325 323 322 321 319 315 313 314 307 301 300 301 304 303 299 292 291 288 287 287 284 282 281 285 291 287 283 286 294 298 311
325 325 323 322 321 321 319 316 314 314 311 307 305 303 302 303 302 300 296 291 286 286 283 282 281 287 291 288 287 290 292 303 314
325 324 322 321 318 318 318 318 316 317 316 310 306 304 302 300 300 298 297 290 286 285 284 282 284 285 288 289 293 292 291 311 327
324 323 321 320 317 316 316 317 318 320 321 319 314 313 310 307 307 303 296 292 289 288 286 286 286 287 291 290 293 294 292 296 306
322 321 321 321 318 316 316 317 319 320 322 323 318 319 317 316 314 308 304 299 297 297 293 291 289 292 292 292 292 292 293 290 299
320 318 318 317 317 317 319 319 318 319 319 320 319 320 321 320 319 318 291 294 300 299 297 298 295 293 290 288 292 294 294 294 291
Height
3148 3146 3144 3142 3141 3139 3138 3137 3136 3135 3134 3134 3134 3134 3134 3134 3134 3133 3133 3132 3133 3134 3134 3135 3135 3136 3137 3137 3138 3138 3138 3138 3139
3146 3144 3142 3140 3139 3138 3136 3135 3134 3134 3133 3132 3131 3131 3131 3131 3131 3131 3130 3129 3129 3130 3131 3131 3131 3132 3133 3134 3135 3135 3136 3136 3137
3144 3142 3140 3139 3137 3136 3134 3133 3132 3132 3132 3132 3130 3129 3128 3127 3127 3128 3128 3127 3126 3126 3125 3126 3128 3128 3129 3130 3131 3131 3132 3133 3134
3143 3141 3139 3137 3135 3134 3132 3131 3130 3130 3129 3129 3128 3127 3126 3125 3124 3123 3124 3124 3123 3122 3122 3122 3123 3124 3125 3125 3126 3126 3127 3128 3129
3140 3139 3137 3135 3133 3132 3131 3130 3129 3128 3127 3126 3125 3124 3123 3122 3121 3120 3119 3120 3119 3118 3118 3118 3118 3119 3119 3120 3120 3121 3122 3123 3124
3139 3137 3135 3133 3132 3130 3129 3129 3128 3127 3126 3125 3123 3121 3120 3119 3118 3117 3116 3115 3115 3114 3114 3114 3114 3115 3115 3115 3116 3117 3117 3118 3119
3137 3135 3133 3132 3130 3129 3128 3127 3125 3124 3123 3122 3120 3118 3117 3115 3114 3113 3112 3111 3111 3111 3111 3110 3110 3111 3110 3110 3110 3111 3112 3113 3114
3136 3134 3132 3131 3129 3128 3126 3125 3124 3122 3121 3119 3117 3115 3113 3112 3110 3109 3108 3108 3106 3106 3106 3105 3105 3105 3104 3105 3104 3104 3104 3105 3106
3134 3133 3131 3129 3128 3126 3125 3123 3122 3120 3119 3117 3114 3112 3110 3108 3106 3105 3104 3103 3102 3101 3101 3100 3100 3100 3099 3098 3097 3096 3097 3098 3098
3133 3131 3129 3128 3126 3124 3123 3121 3119 3117 3115 3113 3112 3109 3108 3105 3103 3102 3100 3098 3098 3096 3096 3096 3095 3094 3093 3091 3091 3090 3089 3089 3089
3133 3131 3128 3126 3124 3123 3121 3118 3116 3114 3112 3109 3108 3106 3104 3102 3100 3098 3095 3095 3094 3092 3092 3091 3090 3090 3088 3087 3085 3083 3083 3082 3081
3132 3130 3127 3125 3123 3120 3118 3115 3113 3112 3108 3106 3104 3103 3100 3098 3096 3094 3092 3092 3090 3089 3088 3087 3085 3084 3082 3081 3079 3079 3079 3077 3076
3130 3128 3126 3123 3120 3118 3115 3113 3110 3108 3106 3102 3100 3098 3096 3094 3091 3090 3089 3088 3085 3085 3084 3082 3080 3078 3078 3077 3075 3074 3072 3071 3069
3127 3125 3123 3120 3117 3114 3111 3108 3107 3105 3102 3099 3097 3095 3092 3090 3087 3086 3085 3085 3082 3081 3079 3078 3076 3074 3074 3072 3071 3069 3068 3065 3064
3124 3121 3119 3117 3114 3111 3108 3105 3102 3101 3099 3095 3093 3091 3088 3086 3084 3082 3082 3081 3079 3077 3074 3073 3071 3070 3069 3067 3066 3064 3062 3061 3058
3121 3118 3115 3112 3110 3108 3105 3102 3099 3097 3095 3091 3089 3086 3084 3082 3080 3079 3078 3076 3074 3073 3071 3070 3068 3067 3066 3062 3061 3060 3059 3057 3052
3118 3115 3111 3109 3106 3104 3101 3098 3095 3092 3091 3088 3085 3083 3082 3079 3077 3075 3073 3072 3070 3068 3066 3066 3063 3063 3062 3058 3056 3055 3054 3053 3050
3114 3111 3108 3105 3103 3100 3097 3094 3091 3088 3086 3084 3082 3079 3077 3075 3073 3071 3069 3068 3065 3064 3062 3061 3059 3058 3057 3054 3052 3050 3049 3048 3047
3110 3107 3104 3101 3099 3097 3094 3091 3087 3084 3082 3080 3078 3075 3074 3072 3071 3068 3066 3063 3061 3060 3058 3057 3054 3054 3052 3049 3047 3046 3045 3044 3043
3106 3104 3101 3098 3096 3094 3092 3089 3085 3081 3078 3076 3074 3071 3068 3067 3066 3066 3065 3061 3058 3056 3054 3053 3050 3049 3047 3043 3041 3041 3040 3039 3039